Location: *
(45.0500°N, 12.0500°E)
Time: 17:54:22
(UTC+00:00)

COSMOS 2455 - Pass Details

Date: 09 April 2020
Orbit: 900 x 910 km, 67.1° (Epoch: 25 May)

Event Time Altitude Azimuth Distance (km) Brightness Sun altitude
Rises 20:02:34 0° 322° (NW) 3,546 7.3 -21.9°
Reaches altitude 10° 20:05:12 10° 316° (NW) 2,601 6.4 -22.3°
Maximum altitude 20:10:49 42° 248° (WSW) 1,284 3.8 -23.0°
Enters shadow 20:13:56 24° 193° (SSW) 1,797 4.1 -23.5°
